Three Rivers, MI

8:01 AM EST on November 21, 2017 (GMT -0500)
Three Rivers Municipal-Haines

Weather History for KHAI - January, 2008

Change the Weather History Date:

Monday, January 21, 2008

  Actual Average Record
Temperature  
Mean Temperature 14 °F -  
Max Temperature 24 °F 31 °F 59 °F (2017)
Min Temperature 6 °F 14 °F -21 °F (1984)
Degree Days  
Heating Degree Days 50    
Moisture  
Dew Point 2 °F    
Average Humidity 59    
Maximum Humidity 79    
Minimum Humidity 43    
Precipitation  
Precipitation 0.00 in - - ()
Sea Level Pressure  
Sea Level Pressure 30.54 in    
Wind  
Wind Speed 7 mph (South)    
Max Wind Speed 10 mph    
Max Gust Speed 16 mph    
Visibility 9 miles    
Events Snow    
Averages and records for this station are not official NWS values.
T = Trace of Precipitation, MM = Missing Value Source: NWS Daily Summary

Daily Weather History Graph

Daily Weather History Graph

Search for Another Location

Airport or City:

Trip Planner

Search our weather history database for the weather conditions in past years. The results will help you decide how hot, cold, wet, or windy it might be!

Date:

Astronomy

Jan. 21, 2008 Rise Set
Actual Time 8:04 AM EST 5:42 PM EST
Civil Twilight 7:34 AM EST 6:13 PM EST
Nautical Twilight 7:00 AM EST 6:47 PM EST
Astronomical Twilight 6:27 AM EST 7:20 PM EST
Moon 4:43 PM EST 7:39 AM EST
Length of Visible Light 10h 38m
Length of Day
9h 38m
Waxing Gibbous, 99% of the Moon is Illuminated
Jan 21
Waxing Gibbous
Jan 22
Full
Jan 30
Last Quarter
Feb 6
New
Feb 13
First Quarter

Hourly Weather History & Observations

Time (EST) Temp. Windchill Dew Point Humidity Pressure Visibility Wind Dir Wind Speed Gust Speed Precip Events Conditions
12:15 AM 8.6 °F -3.7 °F -4.0 °F 57% 30.57 in 10.0 mi SW 8.1 mph - N/A   Overcast
12:35 AM 6.8 °F -3.5 °F -4.0 °F 61% 30.57 in 10.0 mi SW 5.8 mph - N/A   Mostly Cloudy
12:55 AM 6.8 °F -5.9 °F -4.0 °F 61% 30.57 in 10.0 mi SW 8.1 mph - N/A   Scattered Clouds
1:15 AM 6.8 °F -4.8 °F -4.0 °F 61% 30.57 in 10.0 mi SW 6.9 mph - N/A   Scattered Clouds
1:35 AM 6.8 °F -5.9 °F -4.0 °F 61% 30.57 in 10.0 mi SW 8.1 mph - N/A   Scattered Clouds
1:55 AM 8.6 °F -2.6 °F -4.0 °F 57% 30.58 in 10.0 mi SW 6.9 mph - N/A   Mostly Cloudy
2:15 AM 8.6 °F -3.7 °F -4.0 °F 57% 30.59 in 10.0 mi SW 8.1 mph - N/A   Scattered Clouds
2:35 AM 8.6 °F -2.6 °F -4.0 °F 57% 30.59 in 10.0 mi WSW 6.9 mph - N/A   Mostly Cloudy
2:55 AM 8.6 °F -3.7 °F -0.4 °F 67% 30.60 in 10.0 mi WSW 8.1 mph - N/A   Overcast
3:35 AM 8.6 °F -2.6 °F -0.4 °F 67% 30.60 in 10.0 mi SW 6.9 mph - N/A   Overcast
3:55 AM 8.6 °F 0.1 °F -0.4 °F 67% 30.61 in 10.0 mi SW 4.6 mph - N/A   Mostly Cloudy
4:17 AM 8.6 °F 0.1 °F -2.2 °F 62% 30.61 in 10.0 mi SW 4.6 mph - N/A   Scattered Clouds
4:55 AM 8.6 °F -1.3 °F -0.4 °F 67% 30.61 in 10.0 mi SW 5.8 mph - N/A   Clear
5:35 AM 10.4 °F -0.4 °F -0.4 °F 62% 30.62 in 10.0 mi SW 6.9 mph - N/A   Clear
5:55 AM 10.4 °F -0.4 °F -0.4 °F 62% 30.62 in 10.0 mi SW 6.9 mph - N/A   Clear
6:15 AM 10.4 °F 0.8 °F -0.4 °F 62% 30.62 in 10.0 mi SW 5.8 mph - N/A   Clear
6:35 AM 10.4 °F -0.4 °F -0.4 °F 62% 30.63 in 10.0 mi SW 6.9 mph - N/A   Scattered Clouds
6:55 AM 10.4 °F -0.4 °F 1.4 °F 67% 30.64 in 10.0 mi SSW 6.9 mph - N/A   Mostly Cloudy
7:15 AM 12.2 °F -0.2 °F 3.2 °F 67% 30.64 in 10.0 mi SSW 9.2 mph - N/A   Overcast
7:35 AM 10.4 °F -1.5 °F 3.2 °F 73% 30.64 in 10.0 mi SSW 8.1 mph - N/A Snow Light Snow
7:55 AM 10.4 °F -1.5 °F 3.2 °F 73% 30.64 in 5.0 mi SSW 8.1 mph - N/A Snow Light Snow
8:15 AM 10.4 °F -2.4 °F 5.0 °F 79% 30.64 in 5.0 mi SSW 9.2 mph - N/A   Haze
8:35 AM 10.4 °F -1.5 °F 3.2 °F 73% 30.65 in 7.0 mi SSW 8.1 mph - N/A   Overcast
8:55 AM 10.4 °F -1.5 °F 1.4 °F 67% 30.64 in 7.0 mi SSW 8.1 mph - N/A   Mostly Cloudy
9:15 AM 10.4 °F -0.4 °F 1.4 °F 67% 30.64 in 7.0 mi SSW 6.9 mph - N/A   Mostly Cloudy
9:35 AM 10.4 °F -1.5 °F 1.4 °F 67% 30.64 in 10.0 mi South 8.1 mph - N/A   Overcast
9:55 AM 12.2 °F 1.7 °F 3.2 °F 67% 30.64 in 7.0 mi South 6.9 mph - N/A   Overcast
10:17 AM 12.2 °F 0.7 °F 3.2 °F 67% 30.64 in 10.0 mi SSW 8.1 mph - N/A   Overcast
10:35 AM 12.2 °F 0.7 °F 3.2 °F 67% 30.64 in 10.0 mi South 8.1 mph - N/A   Overcast
10:55 AM 14.0 °F 2.9 °F 3.2 °F 62% 30.64 in 10.0 mi South 8.1 mph - N/A Snow Light Snow
11:15 AM 14.0 °F 3.9 °F 3.2 °F 62% 30.63 in 5.0 mi SSW 6.9 mph - N/A Snow Light Snow
11:35 AM 14.0 °F 2.9 °F 5.0 °F 67% 30.63 in 3.0 mi South 8.1 mph - N/A Snow Light Snow
11:55 AM 14.0 °F 3.9 °F 6.8 °F 73% 30.61 in 4.0 mi South 6.9 mph - N/A Snow Light Snow
12:15 PM 15.8 °F 6.1 °F 8.6 °F 73% 30.59 in 10.0 mi South 6.9 mph - N/A   Scattered Clouds
12:35 PM 15.8 °F 3.4 °F 8.6 °F 73% 30.57 in 10.0 mi South 10.4 mph - N/A   Scattered Clouds
12:55 PM 17.6 °F 6.4 °F 8.6 °F 68% 30.55 in 10.0 mi South 9.2 mph - N/A   Scattered Clouds
1:15 PM 17.6 °F 8.2 °F 6.8 °F 63% 30.52 in 10.0 mi SSE 6.9 mph - N/A   Clear
1:35 PM 19.4 °F 9.5 °F 3.2 °F 49% 30.51 in 10.0 mi SSE 8.1 mph - N/A   Scattered Clouds
1:55 PM 19.4 °F 9.5 °F 3.2 °F 49% 30.49 in 10.0 mi SSE 8.1 mph - N/A   Scattered Clouds
2:15 PM 19.4 °F 9.5 °F 3.2 °F 49% 30.48 in 10.0 mi SSE 8.1 mph - N/A   Clear
2:35 PM 21.2 °F 11.7 °F 3.2 °F 46% 30.47 in 10.0 mi SSE 8.1 mph 16.1 mph N/A   Mostly Cloudy
2:55 PM 21.2 °F 12.6 °F 5.0 °F 50% 30.45 in 10.0 mi South 6.9 mph - N/A   Overcast
3:15 PM 21.2 °F 12.6 °F 3.2 °F 46% 30.44 in 10.0 mi SSE 6.9 mph - N/A   Overcast
3:35 PM 23.0 °F 13.1 °F 3.2 °F 43% 30.42 in 10.0 mi SSE 9.2 mph - N/A   Scattered Clouds
3:55 PM 23.0 °F 13.1 °F 3.2 °F 43% 30.40 in 10.0 mi SSE 9.2 mph - N/A   Clear
4:17 PM 23.0 °F 13.9 °F 5.0 °F 46% 30.38 in 10.0 mi SE 8.1 mph - N/A   Clear
4:35 PM 23.0 °F 13.9 °F 5.0 °F 46% 30.37 in 10.0 mi SSE 8.1 mph - N/A   Clear
4:55 PM 23.0 °F 15.8 °F 5.0 °F 46% 30.35 in 10.0 mi SE 5.8 mph - N/A   Scattered Clouds
5:15 PM 23.0 °F 15.8 °F 5.0 °F 46% 30.34 in 10.0 mi SE 5.8 mph - N/A   Mostly Cloudy
5:35 PM 23.0 °F 13.9 °F 5.0 °F 46% 30.32 in 10.0 mi SSE 8.1 mph - N/A   Overcast
5:55 PM 23.0 °F 13.9 °F 5.0 °F 46% 30.32 in 10.0 mi SSE 8.1 mph - N/A   Overcast
6:15 PM 23.0 °F 13.1 °F 5.0 °F 46% 30.30 in 10.0 mi SSE 9.2 mph - N/A   Overcast
6:35 PM 23.0 °F 15.8 °F 5.0 °F 46% 30.30 in 10.0 mi SSE 5.8 mph - N/A   Overcast
6:55 PM 23.0 °F 13.9 °F 6.8 °F 50% 30.30 in 10.0 mi SSE 8.1 mph - N/A   Overcast
7:15 PM 24.8 °F 20.5 °F 6.8 °F 46% 30.30 in 10.0 mi SSE 3.5 mph - N/A   Overcast
7:35 PM 24.8 °F 19.1 °F 6.8 °F 46% 30.29 in 10.0 mi SSE 4.6 mph - N/A   Overcast
7:55 PM 24.8 °F 19.1 °F 8.6 °F 50% 30.28 in 10.0 mi SSE 4.6 mph - N/A   Overcast
8:17 PM 24.8 °F 19.1 °F 8.6 °F 50% 30.27 in 10.0 mi SSE 4.6 mph - N/A   Overcast
8:35 PM 24.8 °F 19.1 °F 8.6 °F 50% 30.25 in 10.0 mi SSE 4.6 mph - N/A   Overcast
8:55 PM 24.8 °F 19.1 °F 10.4 °F 54% 30.24 in 10.0 mi SSE 4.6 mph - N/A   Overcast
9:17 PM 24.8 °F 16.1 °F 10.4 °F 54% 30.23 in 10.0 mi South 8.1 mph - N/A   Overcast
9:35 PM 26.6 °F 20.0 °F 12.2 °F 55% 30.22 in 10.0 mi South 5.8 mph - N/A   Overcast
10:15 PM 26.6 °F 20.0 °F 14.0 °F 59% 30.20 in 10.0 mi South 5.8 mph - N/A   Overcast
10:35 PM 26.6 °F 18.2 °F 14.0 °F 59% 30.19 in 10.0 mi South 8.1 mph - N/A   Overcast
10:55 PM 26.6 °F 20.0 °F 14.0 °F 59% 30.19 in 10.0 mi South 5.8 mph - N/A   Overcast
11:15 PM 26.6 °F 20.0 °F 14.0 °F 59% 30.17 in 10.0 mi South 5.8 mph - N/A   Overcast
11:35 PM 28.4 °F 20.4 °F 14.0 °F 55% 30.17 in 10.0 mi South 8.1 mph - N/A   Overcast
11:55 PM 28.4 °F 20.4 °F 14.0 °F 55% 30.16 in 10.0 mi South 8.1 mph - N/A   Overcast